Hourly Data Report for August 07, 2021

ALGONQUIN PARK EAST GATE
ONTARIO
Current Station Operator: ECCC - MSC

45°32'00.000" N
78°16'00.000" W
397.00 m
6080192
71581
TNK

Download Data

Hourly Data (August 2021)
Hourly Data Report for August 7, 2021
TIME
LST
Temp Definition
°C
Dew Point Definition
°C
Rel Hum Definition
%
Precip. Amount Definition
mm

Wind Dir Definition
10's deg

Wind Spd Definition
km/h
Visibility Definition
km
Stn Press Definition
kPa
Hmdx Definition


Wind Chill Definition


Weather Definition


00:00 17.5 17.0 97 0.0   0   96.89     LegendNANA
01:00 17.3 16.8 97 0.0   0   96.86     LegendNANA
02:00 17.6 17.3 98 2.0   0   96.82     LegendNANA
03:00 17.9 17.6 98 0.0   0   96.78     LegendNANA
04:00 18.2 17.8 98 0.0 27 2   96.81     LegendNANA
05:00 17.9 17.5 97 0.0 22 1   96.83     LegendNANA
06:00 18.3 18.0 98 0.0 25 1   96.85     LegendNANA
07:00 18.6 18.0 96 0.0 0 1   96.87     LegendNANA
08:00 19.5 18.5 94 0.0 25 2   96.92     LegendNANA
09:00 20.1 18.5 90 0.0 26 3   96.93 26   LegendNANA
10:00 20.7 18.7 88 0.0 28 3   96.95 27   LegendNANA
11:00 22.9 18.4 76 0.0 26 4   96.93 29   LegendNANA
12:00 22.6 18.1 76 0.0 2 4   96.95 29   LegendNANA
13:00 23.9 16.9 65 0.0 1 7   96.92 29   LegendNANA
14:00 25.4 18.7 66 0.0 34 3   96.90 32   LegendNANA
15:00 24.2 17.6 67 0.0 35 4   96.90 30   LegendNANA
16:00 24.2 17.6 67 0.0 33 5   96.87 30   LegendNANA
17:00 23.8 17.7 68 0.0 3 4   96.87 30   LegendNANA
18:00 22.2 18.2 78 0.0 8 3   96.90 28   LegendNANA
19:00 21.3 17.8 81 0.0 6 2   96.96 27   LegendNANA
20:00 20.0 17.5 85 0.0 8 1   97.02 26   LegendNANA
21:00 19.3 17.0 86 0.0 3 2   97.07     LegendNANA
22:00 18.2 16.5 90 0.0 3 1   97.07     LegendNANA
23:00 16.7 15.8 94 0.0   0   97.09     LegendNANA

Notes on Data Quality.

Legend

  • E = Estimated
  • M = Missing
  • NA = Not Available*
  • [empty] = Indicates an unobserved value
Date modified: